Grand Junction, CO

11:54 PM MDT on September 25, 2017 (GMT -0600)
Walker

Weather History for KGJT - March, 2012

Change the Weather History Date:

Monday, March 26, 2012

  Actual Average Record
Temperature  
Mean Temperature 52 °F 46 °F  
Max Temperature 66 °F 59 °F 81 °F (1971)
Min Temperature 37 °F 33 °F 16 °F (1917)
Degree Days  
Heating Degree Days 13 19  
Month to date heating degree days 473 563  
Since 1 July heating degree days 4572 4942  
Cooling Degree Days 0 0  
Month to date cooling degree days 0 0  
Year to date cooling degree days 0 0  
Growing Degree Days 4 (Base 50)    
Moisture  
Dew Point 12 °F    
Average Humidity 19    
Maximum Humidity 30    
Minimum Humidity 7    
Precipitation  
Precipitation 0.00 in 0.04 in 0.38 in (1975)
Month to date precipitation 0.20 0.75  
Year to date precipitation 1.00 1.87  
Snow  
Snow 0.00 in 0.10 in 4.00 in (1975)
Month to date snowfall 2.8 2.2  
Since 1 July snowfall 8.2 17.7  
Snow Depth 0.00 in    
Sea Level Pressure  
Sea Level Pressure 29.70 in    
Wind  
Wind Speed 16 mph (South)    
Max Wind Speed 44 mph    
Max Gust Speed 56 mph    
Visibility 10 miles    
Events      
T = Trace of Precipitation, MM = Missing Value Source: NWS Daily Summary

Daily Weather History Graph

Daily Weather History Graph

Search for Another Location

Airport or City:

Trip Planner

Search our weather history database for the weather conditions in past years. The results will help you decide how hot, cold, wet, or windy it might be!

Date:

Astronomy

Mar. 26, 2012 Rise Set
Actual Time 7:07 AM MDT 7:32 PM MDT
Civil Twilight 6:40 AM MDT 7:59 PM MDT
Nautical Twilight 6:08 AM MDT 8:30 PM MDT
Astronomical Twilight 5:36 AM MDT 9:03 PM MDT
Moon 9:00 AM MDT 11:43 PM MDT
Length of Visible Light 13h 18m
Length of Day
12h 25m
Waxing Crescent, 15% of the Moon is Illuminated
Mar 26
Waxing Crescent
Mar 30
First Quarter
Apr 6
Full
Apr 13
Last Quarter
Apr 21
New

Hourly Weather History & Observations

Time (MDT) Temp. Windchill Dew Point Humidity Pressure Visibility Wind Dir Wind Speed Gust Speed Precip Events Conditions
12:53 AM 59.0 °F - 19.9 °F 22% 29.63 in 10.0 mi East 6.9 mph - N/A   Clear
1:53 AM 59.0 °F - 21.0 °F 23% 29.63 in 10.0 mi ENE 9.2 mph - N/A   Clear
2:53 AM 59.0 °F - 18.0 °F 20% 29.61 in 10.0 mi East 10.4 mph - N/A   Clear
3:53 AM 61.0 °F - 15.1 °F 17% 29.57 in 10.0 mi ESE 13.8 mph - N/A   Clear
4:53 AM 61.0 °F - 14.0 °F 16% 29.58 in 10.0 mi SE 13.8 mph - N/A   Clear
5:53 AM 62.1 °F - 12.9 °F 15% 29.60 in 10.0 mi SE 6.9 mph - N/A   Clear
6:53 AM 59.0 °F - 14.0 °F 17% 29.62 in 10.0 mi ESE 17.3 mph - N/A   Clear
7:53 AM 59.0 °F - 15.1 °F 18% 29.62 in 10.0 mi ESE 19.6 mph - N/A   Clear
8:53 AM 62.1 °F - 15.1 °F 16% 29.60 in 10.0 mi South 16.1 mph 23.0 mph N/A   Clear
9:53 AM 64.0 °F - 14.0 °F 14% 29.61 in 10.0 mi SSW 26.5 mph 51.8 mph N/A   Clear
10:53 AM 64.0 °F - 18.0 °F 17% 29.67 in 10.0 mi South 27.6 mph 44.9 mph N/A   Clear
11:53 AM 61.0 °F - 19.9 °F 21% 29.69 in 10.0 mi South 26.5 mph 35.7 mph N/A   Mostly Cloudy
12:53 PM 64.0 °F - 3.9 °F 9% 29.68 in 10.0 mi WSW 28.8 mph 38.0 mph N/A   Clear
1:53 PM 66.0 °F - -0.9 °F 7% 29.67 in 10.0 mi West 31.1 mph 39.1 mph N/A   Scattered Clouds
2:53 PM 64.9 °F - 1.0 °F 8% 29.67 in 10.0 mi WSW 21.9 mph 38.0 mph N/A   Scattered Clouds
3:53 PM 63.0 °F - 6.1 °F 11% 29.70 in 10.0 mi West 27.6 mph 39.1 mph N/A   Scattered Clouds
4:53 PM 62.1 °F - 9.0 °F 12% 29.72 in 10.0 mi WNW 19.6 mph 33.4 mph N/A   Partly Cloudy
5:53 PM 60.1 °F - 9.0 °F 13% 29.76 in 10.0 mi West 18.4 mph 32.2 mph N/A   Clear
6:53 PM 57.9 °F - 10.0 °F 15% 29.78 in 10.0 mi West 15.0 mph 21.9 mph N/A   Clear
7:53 PM 54.0 °F - 10.9 °F 18% 29.81 in 10.0 mi West 9.2 mph - N/A   Clear
8:53 PM 46.9 °F - 10.0 °F 22% 29.84 in 10.0 mi NNW 6.9 mph - N/A   Clear
9:53 PM 44.1 °F - 10.0 °F 25% 29.87 in 10.0 mi Calm Calm - N/A   Clear
10:53 PM 41.0 °F 39.0 °F 10.0 °F 28% 29.89 in 10.0 mi NE 3.5 mph - N/A   Clear
11:53 PM 39.9 °F 37.8 °F 10.9 °F 31% 29.92 in 10.0 mi East 3.5 mph - N/A   Clear